Notices

What's New in latest Release from April 7th, 2021:

- Updated Glossary, including Speed of Maximum Gust, and Total Hourly Precipitation

- Updated national and regional climate services offices contacts and prices information

- Addition of station inventory lists for 1981-2010, 1971-2000, and 1961-1990 Normals.

If you haven't already, please take our survey and provide feedback about our website: https://eccc.sondage-survey.ca/f/LanguageSelection.aspx?s=442ca660-fcf1-47c0-95a9-59707d6fd709

Hourly Data Report for December 08, 2020

CARBERRY CS
MANITOBA
Current Station Operator: ECCC - MSC

49°54'20.900" N
99°21'26.800" W
383.50 m
5010547
71170
WZE

Download Data

Hourly Data (December 2020)
Hourly Data Report for December 8, 2020
TIME
LST
Temp Definition
°C
Dew Point Definition
°C
Rel Hum Definition
%
Precip. Amount Definition
mm

Wind Dir Definition
10's deg

Wind Spd Definition
km/h
Visibility Definition
km
Stn Press Definition
kPa
Hmdx Definition


Wind Chill Definition


Weather Definition


00:00 0.2 -3.4 77 0.0 25 17   96.54     LegendNANA
01:00 -0.1 -3.4 78 0.0 24 16   96.41   -5 LegendNANA
02:00 -0.6 -3.7 80 0.0 26 19   96.38   -6 LegendNANA
03:00 -1.1 -4.0 81 0.0 26 17   96.37   -6 LegendNANA
04:00 -1.9 -4.2 84 0.0 26 24   96.44   -8 LegendNANA
05:00 -1.8 -4.4 83 0.0 27 18   96.38   -7 LegendNANA
06:00 -1.6 -4.0 84 0.0 26 21   96.44   -7 LegendNANA
07:00 -0.9 -3.6 82 0.0 26 17   96.38   -6 LegendNANA
08:00 -0.3 -3.4 80 0.0 27 16   96.33   -5 LegendNANA
09:00 1.5 -3.0 72 0.0 27 11   96.34     LegendNANA
10:00 1.0 -2.8 76 0.0 25 9   96.36     LegendNANA
11:00 2.9 -1.9 71 0.0 25 9   96.35     LegendNANA
12:00 3.4 -1.8 69 0.0 24 8   96.29     LegendNANA
13:00 4.0 -1.7 66 0.0 25 8   96.27     LegendNANA
14:00 5.9 -1.5 59 0.0 24 14   96.18     LegendNANA
15:00 4.7 -1.9 62 0.0 29 8   96.14     LegendNANA
16:00 4.0 -1.7 66 0.0 25 8   96.14     LegendNANA
17:00 2.3 -2.3 72 0.0 23 5   96.13     LegendNANA
18:00 0.4 -3.7 74 0.0 27 12   96.20     LegendNANA
19:00 0.1 -2.9 80 0.0 27 16   96.19     LegendNANA
20:00 -0.8 -3.8 80 0.0 28 16   96.25   -6 LegendNANA
21:00 -0.9 -3.0 85 0.0 27 15   96.29   -6 LegendNANA
22:00 0.7 -2.5 79 0.0 25 12   96.35     LegendNANA
23:00 -0.7 -2.9 85 0.0 21 11   96.37   -4 LegendNANA

Notes on Data Quality.

Legend

  • E = Estimated
  • M = Missing
  • NA = Not Available*
  • [empty] = Indicates an unobserved value
Date modified: